Weather reports worldwide

Advertisment
Brüssel, Belgium (6451): temperature & dewpoint: 18.10.2020 00:00:00 - 24.10.2020 00:00:00 (CEST)Brüssel, Belgium (6451): wind speed & gusts: 18.10.2020 00:00:00 - 24.10.2020 00:00:00 (CEST)Brüssel, Belgium (6451): wind direction: 18.10.2020 00:00:00 - 24.10.2020 00:00:00 (CEST)Brüssel, Belgium (6451): reduced air pressure: 18.10.2020 00:00:00 - 24.10.2020 00:00:00 (CEST)Brüssel, Belgium (6451): visibility: 18.10.2020 00:00:00 - 24.10.2020 00:00:00 (CEST)
Date & Time tt [°C] td [°C] ff [km/h] ff [kn] fx [km/h] fx [kn] dd ppp [hPa] vv [km]
24.10.2020 00:00:00 12,7 10,3 13 7 32 18 SW 1013,1 10
23.10.2020 23:00:00 13,7 10,7 16 9 - - WSW 1012,6 10
23.10.2020 22:00:00 13,7 10,4 11 6 22 12 SW 1011,7 40
23.10.2020 21:00:00 12,8 10,2 9 5 18 10 SSW 1011,5 10
23.10.2020 20:00:00 13,9 11,0 11 6 - - SSW 1011,0 10
23.10.2020 19:00:00 14,1 11,2 9 5 25 14 SSW 1011,0 10
23.10.2020 18:00:00 15,7 10,8 15 8 29 16 WSW 1010,8 10
23.10.2020 17:00:00 16,6 11,1 16 9 - - SW 1010,4 10
23.10.2020 16:00:00 17,4 12,3 16 9 25 14 SW 1010,2 10
23.10.2020 15:00:00 16,7 12,8 21 11 25 14 SW 1010,5 10
23.10.2020 14:00:00 16,0 13,5 13 7 - - SW 1010,6 10
23.10.2020 13:00:00 15,4 13,6 11 6 22 12 SW 1010,9 10
23.10.2020 12:00:00 14,7 13,2 11 6 18 10 SW 1011,0 8
23.10.2020 11:00:00 14,3 13,0 9 5 - - SSW 1010,9 8
23.10.2020 10:00:00 13,5 12,3 8 4 14 8 SSW 1011,0 10
23.10.2020 09:00:00 12,8 11,8 9 5 11 6 S 1010,9 9
23.10.2020 08:00:00 11,9 11,0 5 3 - - S 1010,8 6
23.10.2020 07:00:00 11,5 10,7 8 4 11 6 S 1010,9 8
23.10.2020 06:00:00 11,4 10,6 8 4 11 6 S 1011,0 10
23.10.2020 05:00:00 11,4 10,5 8 4 - - S 1011,9 10
23.10.2020 04:00:00 11,6 10,9 5 3 11 6 SW 1012,0 6
23.10.2020 03:00:00 12,3 11,3 5 3 11 6 S 1012,7 6
23.10.2020 02:00:00 12,5 11,5 7 4 - - SSW 1012,8 15
23.10.2020 01:00:00 11,9 -16,7 9 5 11 6 SSW 1012,9 10
23.10.2020 00:00:00 11,4 10,6 8 4 11 6 S 1013,0 10
22.10.2020 23:00:00 11,3 10,4 7 4 - - S 1012,8 20
22.10.2020 22:00:00 12,6 11,5 9 5 11 6 SW 1012,4 10
22.10.2020 21:00:00 12,5 11,3 8 4 11 6 SW 1012,3 10
22.10.2020 20:00:00 13,9 12,5 5 3 - - SSW 1012,2 10
22.10.2020 19:00:00 14,5 13,1 5 3 11 6 SW 1011,9 10
22.10.2020 18:00:00 15,8 13,9 8 4 18 10 SSW 1011,2 10
22.10.2020 17:00:00 15,8 13,7 13 7 - - WSW 1011,5 10
22.10.2020 16:00:00 14,8 13,5 11 6 25 14 W 1011,3 8
22.10.2020 15:00:00 16,4 14,1 9 5 18 10 SW 1011,5 10
22.10.2020 14:00:00 15,8 13,8 9 5 - - WSW 1011,9 10
22.10.2020 13:00:00 14,6 13,4 9 5 25 14 SSW 1012,2 6
22.10.2020 12:00:00 15,2 12,8 18 10 29 16 SSW 1012,3 9
22.10.2020 11:00:00 15,6 12,6 16 9 - - SW 1012,2 10
22.10.2020 10:00:00 14,9 12,2 15 8 22 12 SSW 1011,9 10
22.10.2020 09:00:00 13,6 11,4 15 8 25 14 SSW 1011,0 10
22.10.2020 08:00:00 13,7 10,9 15 8 - - SW 1010,3 10
22.10.2020 07:00:00 13,6 11,0 13 7 25 14 SW 1010,3 10
22.10.2020 06:00:00 14,2 11,2 16 9 29 16 SW 1010,0 10
22.10.2020 05:00:00 13,9 11,5 18 10 - - SW 1009,8 10
22.10.2020 04:00:00 13,6 11,3 13 7 29 16 SSW 1009,6 10
22.10.2020 03:00:00 14,5 11,4 18 10 29 16 SSW 1009,4 10
22.10.2020 02:00:00 15,3 11,5 15 8 - - SW 1009,1 10
22.10.2020 01:00:00 15,8 11,9 18 10 29 16 SW 1008,3 10
22.10.2020 00:00:00 14,8 12,6 11 6 29 16 SSW 1007,7 10
21.10.2020 23:00:00 15,6 12,9 21 11 - - SW 1007,1 10
21.10.2020 22:00:00 15,4 12,9 26 14 43 23 W 1006,4 10
21.10.2020 21:00:00 18,3 12,0 28 15 54 29 SW 1005,0 10
21.10.2020 20:00:00 18,4 11,8 34 18 - - SW 1003,6 10
21.10.2020 19:00:00 18,8 12,8 36 19 61 33 SW 1002,4 30
21.10.2020 18:00:00 19,2 12,3 35 19 61 33 SW 1001,2 10
21.10.2020 17:00:00 19,5 12,7 39 21 - - SSW 1000,3 10
21.10.2020 16:00:00 20,0 12,2 46 25 79 43 SSW 999,4 10
21.10.2020 15:00:00 20,2 12,2 41 22 79 43 SSW 999,0 10
21.10.2020 14:00:00 19,6 11,4 42 23 - - SSW 998,7 10
21.10.2020 13:00:00 19,0 10,8 44 24 72 39 S 999,3 10
21.10.2020 12:00:00 16,1 10,7 35 19 50 27 S 999,3 10
21.10.2020 11:00:00 13,4 11,1 24 13 - - SSE 1000,5 10
21.10.2020 10:00:00 13,0 11,1 22 12 36 19 S 1001,8 10
21.10.2020 09:00:00 12,7 11,0 18 10 29 16 SSE 1001,7 8
21.10.2020 08:00:00 12,5 11,1 18 10 - - S 1002,2 10
21.10.2020 07:00:00 12,1 10,7 13 7 29 16 S 1002,8 10
21.10.2020 06:00:00 12,4 10,8 16 9 29 16 S 1003,2 8
21.10.2020 05:00:00 12,9 11,2 18 10 - - S 1003,9 10
21.10.2020 04:00:00 13,0 11,5 16 9 25 14 S 1004,5 10
21.10.2020 03:00:00 13,4 11,7 16 9 25 14 S 1005,3 10
21.10.2020 02:00:00 13,7 11,7 11 6 - - S 1005,8 10
21.10.2020 01:00:00 13,8 11,9 16 9 29 16 S 1006,2 10
21.10.2020 00:00:00 13,6 11,8 16 9 22 12 S 1006,7 10
20.10.2020 23:00:00 13,9 12,1 15 8 - - S 1007,3 10
20.10.2020 22:00:00 13,9 12,1 18 10 29 16 S 1007,3 10
20.10.2020 21:00:00 13,9 12,2 16 9 32 18 S 1007,8 10
20.10.2020 20:00:00 14,1 12,1 22 12 - - S 1007,8 10
20.10.2020 19:00:00 14,4 12,1 21 11 40 21 S 1007,6 10
20.10.2020 18:00:00 14,5 12,0 22 12 47 25 SSW 1007,8 10
20.10.2020 17:00:00 15,1 11,6 26 14 - - S 1007,9 10
20.10.2020 16:00:00 16,0 10,0 24 13 - - SSW - 10
20.10.2020 15:00:00 16,0 10,0 21 11 - - SSW - 10
20.10.2020 14:00:00 15,0 10,0 21 11 - - SSW - 10
20.10.2020 13:00:00 15,0 10,0 28 15 - - S - 10
20.10.2020 12:00:00 13,4 9,5 22 12 36 19 S 1008,5 10
20.10.2020 11:00:00 12,6 8,5 18 10 - - S 1008,4 10
20.10.2020 10:00:00 12,3 8,0 22 12 36 19 S 1008,4 10
20.10.2020 09:00:00 11,7 7,0 22 12 36 19 S 1007,9 10
20.10.2020 08:00:00 10,9 6,6 21 11 - - S 1007,7 10
20.10.2020 07:00:00 10,3 6,4 18 10 29 16 S 1008,1 10
20.10.2020 06:00:00 9,9 5,8 21 11 36 19 S 1008,4 10
20.10.2020 05:00:00 9,7 5,4 15 8 - - S 1009,2 10
20.10.2020 04:00:00 9,5 4,8 16 9 29 16 S 1010,0 10
20.10.2020 03:00:00 7,6 4,4 9 5 14 8 SE 1011,0 10
20.10.2020 02:00:00 7,1 4,4 8 4 - - ESE 1012,2 10
20.10.2020 01:00:00 8,1 4,9 9 5 18 10 ESE 1013,0 10
20.10.2020 00:00:00 8,3 5,0 11 6 22 12 ESE 1013,6 10
19.10.2020 23:00:00 9,4 5,1 11 6 - - ESE 1014,5 10
19.10.2020 22:00:00 9,7 5,7 13 7 22 12 SE 1015,3 10
19.10.2020 21:00:00 9,5 6,0 11 6 18 10 ESE 1016,4 10
19.10.2020 20:00:00 9,8 6,0 11 6 - - SE 1017,3 10
19.10.2020 19:00:00 10,6 6,2 13 7 22 12 SE 1017,3 10
19.10.2020 18:00:00 11,9 6,3 13 7 22 12 SSE 1018,0 10
19.10.2020 17:00:00 13,4 6,7 11 6 - - S 1018,7 10
19.10.2020 16:00:00 13,5 6,5 11 6 22 12 S 1019,3 10
19.10.2020 15:00:00 13,7 6,5 13 7 22 12 S 1020,0 10
19.10.2020 14:00:00 13,6 6,9 13 7 - - S 1020,9 10
19.10.2020 13:00:00 12,6 7,8 11 6 18 10 S 1021,6 10
19.10.2020 12:00:00 11,0 7,8 9 5 18 10 S 1021,9 10
19.10.2020 11:00:00 10,0 7,3 13 7 - - S 1022,5 10
19.10.2020 10:00:00 9,3 7,4 11 6 14 8 S 1022,5 10
19.10.2020 09:00:00 8,7 6,9 9 5 14 8 S 1022,2 10
19.10.2020 08:00:00 8,4 6,7 11 6 - - S 1021,9 10
19.10.2020 07:00:00 8,6 6,6 11 6 14 8 S 1022,0 10
19.10.2020 06:00:00 7,9 6,5 13 7 18 10 S 1022,4 10
19.10.2020 05:00:00 7,7 6,6 5 3 - - S 1022,7 10
19.10.2020 04:00:00 8,2 6,6 5 3 11 6 SW 1023,3 10
19.10.2020 03:00:00 8,4 7,0 8 4 7 4 SSW 1023,5 10
19.10.2020 02:00:00 8,6 7,1 4 2 - - SSW 1023,4 10
19.10.2020 01:00:00 9,0 7,2 5 3 11 6 SW 1023,5 10
19.10.2020 00:00:00 9,4 7,5 8 4 7 4 SW 1023,5 10
18.10.2020 23:00:00 9,5 7,7 5 3 - - SW 1023,6 10
18.10.2020 22:00:00 9,7 7,7 5 3 7 4 SW 1023,3 10
18.10.2020 21:00:00 10,4 7,5 4 2 7 4 W 1023,2 10
18.10.2020 20:00:00 10,2 7,4 5 3 - - W 1023,3 10
18.10.2020 19:00:00 10,9 7,6 9 5 14 8 W 1022,9 10
18.10.2020 18:00:00 11,9 7,5 11 6 14 8 WNW 1022,4 10
18.10.2020 17:00:00 12,1 9,0 8 4 - - WSW 1022,5 10
18.10.2020 16:00:00 12,6 8,3 7 4 14 8 W 1022,6 10
18.10.2020 15:00:00 12,4 8,8 8 4 14 8 WSW 1022,9 10
18.10.2020 14:00:00 11,7 9,0 8 4 - - WSW 1023,4 10
18.10.2020 13:00:00 10,8 8,5 8 4 18 10 SW 1023,7 8
18.10.2020 12:00:00 10,3 8,0 9 5 22 12 WNW 1023,8 7
18.10.2020 11:00:00 9,4 7,7 16 9 - - SSW 1023,1 6
18.10.2020 10:00:00 8,7 6,9 11 6 14 8 SSW 1023,1 6
18.10.2020 09:00:00 7,6 6,2 5 3 11 6 SSW 1022,9 5
18.10.2020 08:00:00 7,2 5,6 8 4 - - SSW 1022,3 8
18.10.2020 07:00:00 7,1 5,5 8 4 11 6 S 1022,3 10
18.10.2020 06:00:00 7,7 5,8 8 4 11 6 SSW 1022,4 10
18.10.2020 05:00:00 7,8 6,0 8 4 - - SSW 1022,4 10
18.10.2020 04:00:00 7,7 5,9 5 3 7 4 SSW 1022,5 10
18.10.2020 03:00:00 7,8 6,1 4 2 7 4 SSW 1022,5 10
18.10.2020 02:00:00 8,2 6,4 5 3 - - SSW 1022,5 10
18.10.2020 01:00:00 8,0 6,4 4 2 4 2 SSW 1022,4 10
18.10.2020 00:00:00 8,3 6,4 5 3 7 4 SW 1022,3 10

tt = temperature
td = dewpoint
ff = wind speed
fx = gusts
dd = wind direction
ppp = reduced air pressure
vv = visibility

Next stations